Regional Weather Roundup
Issued by NWS

Home | Current Version | Previous Version | Text Only | Print | Product List | Glossary On
Versions: 1 2 3 4 5 6 7 8 9 10 11 12 13 14 15 16 17 18 19 20 21 22 23 24 25 26 27 28 29 30 31 32 33 34 35 36 37 38 39 40 41 42 43 44 45 46 47 48 49 50
000
ASUS43 KLMK 300702
RWRKY
KENTUCKY REGIONAL WEATHER ROUNDUP
NATIONAL WEATHER SERVICE LOUISVILLE KY
300 AM EDT TUE SEP 30 2014

NOTE "FAIR" INDICATES FEW OR NO CLOUDS BELOW 12,000 FEET
WITH NO SIGNIFICANT WEATHER AND/OR OBSTRUCTIONS TO VISIBILITY.

KYZ001>023-026-027-061>063-070>075-300800-
WESTERN AND SOUTH CENTRAL KENTUCKY

CITY           SKY/WX    TMP DP  RH WIND       PRES   REMARKS
PADUCAH        CLEAR     58  56  93 CALM      29.93F
HENDERSON      NOT AVBL
OWENSBORO      CLEAR     57  54  90 CALM      29.95S
HOPKINSVILLE   CLEAR     60  58  92 CALM      29.95S
BOWLING GREEN  CLEAR     59  56  89 CALM      29.95S FOG
GLASGOW        FOG       56  56 100 CALM      29.96S VSB 1/2
$$

KYZ024-025-028>034-038-045-046-053-300800-
NORTH CENTRAL KENTUCKY

CITY           SKY/WX    TMP DP  RH WIND       PRES   REMARKS
LOUISVILLE/SDF CLEAR     63  56  78 CALM      29.94S
LOUISVILLE/LOU CLEAR     59  56  89 CALM      29.95R
FORT KNOX      CLEAR     55  54  96 SW2       29.94S
$$

KYZ035>037-039>044-047>052-055>060-089>105-300800-
NORTHEAST KENTUCKY

CITY           SKY/WX    TMP DP  RH WIND       PRES   REMARKS
LEXINGTON      CLEAR     57  52  83 CALM      29.95S
COVINGTON      CLEAR     55  53  93 S3        29.94S
FRANKFORT      CLEAR     54  51  90 CALM      29.94S
$$

KYZ054-064>069-076>088-106>120-300800-
SOUTHEAST KENTUCKY

CITY           SKY/WX    TMP DP  RH WIND       PRES   REMARKS
JACKSON        CLEAR     62  59  90 CALM      29.96S
LONDON         FOG       58  56  93 CALM      29.97S VSB 1/4
SOMERSET       FOG       57  57 100 CALM      29.97S VSB 3/4
MIDDLESBORO    FOG       59  59 100 CALM      29.98F VSB 1/4
MONTICELLO     FOG       55  54  97 CALM      29.98S VSB 1/4
$$




USA.gov is the U.S. government's official web portal to all federal, state and local government web resources and services.